Regional Weather Roundup
Issued by NWS

Home | Current Version | Previous Version | Text Only | Print | Product List | Glossary Off
Versions: 1 2 3 4 5 6 7 8 9 10 11 12 13 14 15 16 17 18 19 20 21 22 23 24 25 26 27 28 29 30 31 32 33 34 35 36 37 38 39 40 41 42 43 44 45 46 47 48 49 50

000
ASUS43 KIND 181309
RWRIN

WEATHER ROUNDUP FOR INDIANA
NATIONAL WEATHER SERVICE INDIANAPOLIS IN
900 AM EDT WED OCT 18 2017

NOTE: "FAIR" INDICATES FEW OR NO CLOUDS BELOW 12,000 FEET WITH NO
SIGNIFICANT WEATHER AND/OR OBSTRUCTIONS TO VISIBILITY.

* - STATION DOES NOT REPORT WEATHER SUCH AS PRECIPITATION OR FOG.

+ - STATION NOT QUALITY CONTROLLED BY THE NATIONAL WEATHER SERVICE.
    USE DATA WITH CAUTION...ESPECIALLY DEWPOINT AND RELATIVE
    HUMIDITY OBSERVATIONS.

INZ001>003-010>013-019-020-181400-
NORTHWEST INDIANA

CITY           SKY/WX    TMP DP  RH WIND       PRES   REMARKS
GARY /AIRPORT/ CLEAR     52  39  62 S6        30.20R
KNOX *+        CLEAR     45  41  87 S3        30.22S
LA PORTE +     CLEAR     45  40  84 S3        30.22R
MICHIGAN CITY+ PTCLDY    50  41  71 S9        30.21S
MONTICELLO +   CLEAR     48  41  74 S7        30.24S
RENSSELAER +   CLEAR     45  37  76 S7        30.23R
VALPARAISO     CLEAR     46  41  82 S7        30.22R

$$

LMZ046-743>745-181400-
SOUTHERN LAKE MICHIGAN

STATION/POSITION TIME  TEMP    WIND        PRES    WAVE
                       AIR SEA DIR/SP/G            HT
                 (UTC) (F)     (DEG/KT/KT) (MB)    (FT)
BURNS HARBOR     1240   49     180/ 11/ 16 1022.7S
MICHIGAN CITY    1240   50     160/ 14/ 17   N/A
5NW MICH CITY    1300   52 57  200/ 14/ 17   N/A     2

$$

INZ004-005-014>016-021>024-181400-
NORTH CENTRAL INDIANA

CITY           SKY/WX    TMP DP  RH WIND       PRES   REMARKS
ELKHART        CLEAR     48  39  71 S7        30.22S
GOSHEN         SUNNY     49  39  68 S9        30.23S
LOGANSPORT +   PTCLDY    43  41  93 S5        30.26S
PERU/GRISSOM   SUNNY     46  42  88 S6        30.25S
SOUTH BEND     CLEAR     48  42  80 S7        30.22R
WARSAW +       SUNNY     46  41  81 CALM      30.24S

$$

INZ006>009-017-018-025>027-181400-
NORTHEAST INDIANA

CITY           SKY/WX    TMP DP  RH WIND       PRES   REMARKS
AUBURN +       SUNNY     45  39  81 S5        30.26S
FORT WAYNE     SUNNY     46  41  82 S6        30.27S
HUNTINGTON +   SUNNY     46  41  84 CALM      30.27R
KENDALLVILLE + SUNNY     48  40  74 S7        30.25R

$$

INZ028-029-035-036-043>045-051>053-181400-
WEST CENTRAL INDIANA

CITY           SKY/WX    TMP DP  RH WIND       PRES   REMARKS
CRAWFORDSVL +  CLEAR     43  43 100 CALM      30.27R
GREENCASTLE +  SUNNY     43  41  93 CALM      30.28R
LAFAYETTE      PTCLDY    44  42  93 CALM      30.25S
TERRE HAUTE    CLEAR     44  41  89 SE3       30.27R

$$

INZ030>032-037>040-046>048-054>057-064-065-181400-
CENTRAL INDIANA

CITY           SKY/WX    TMP DP  RH WIND       PRES   REMARKS
ANDERSON       SUNNY     46  41  81 S6        30.28S
CP ATTERBURY + MOSUNNY   37  37 100 CALM      30.31R
COLUMBUS       MOSUNNY   41  39  93 CALM      30.31R
FRANKFORT +    MOCLDY    46  43  89 S5        30.28R
GREENWOOD *+   SUNNY     49  45  84 SE5       30.29R
INDIANAPOLIS   SUNNY     46  42  86 SE6       30.28R
-EAGLE CREEK   SUNNY     45  42  89 CALM      30.28R
KOKOMO +       SUNNY     45  42  89 S6        30.28R
MT COMFORT *+  SUNNY     45  45 100 SE6       30.29R
SHELBYVILLE    SUNNY     48  41  76 SE6       30.29R
ZIONSVILLE +   SUNNY     41  41  99 CALM      30.28R

$$

INZ033-034-041-042-049-050-058-059-181400-
EAST CENTRAL INDIANA

CITY           SKY/WX    TMP DP  RH WIND       PRES   REMARKS
MUNCIE         SUNNY     50  41  71 S5        30.28S
RICHMOND +     SUNNY     45  43  93 SE5       30.31R

$$

INZ060-061-067>069-081>083-085>088-181400-
SOUTHWEST INDIANA

CITY           SKY/WX    TMP DP  RH WIND       PRES   REMARKS
EVANSVILLE     SUNNY     45  43  93 CALM      30.29R
HUNTINGBURG +  SUNNY     45  43  93 SE5       30.30R
WASHINGTON +   SUNNY     46  44  91 S5        30.28R

$$

INZ062-063-066-070>080-084-089>092-181400-
SOUTH CENTRAL AND SOUTHEAST INDIANA

CITY           SKY/WX    TMP DP  RH WIND       PRES   REMARKS
BLOOMINGTON    SUNNY     43  40  89 CALM      30.28R
MADISON *+     SUNNY     45  43  93 CALM      30.33R
NORTH VERNON + SUNNY     43  41  93 CALM      30.31R
SEYMOUR +      SUNNY     41  41 100 CALM      30.31R FOG

$$




USA.gov is the U.S. government's official web portal to all federal, state and local government web resources and services.